User: anonymous   Login
Location: Huesca
(42.1318°N, 0.4078°W)
Time: 06:06:55
(UTC+02:00)
Language:

YUBILEINY - Orbit

View from above orbital plane
View from above orbital plane
View from above satellite
View from above satellite

Ground track
Ground track

The orbit data is extracted from the following two-line orbital elements,

1 32953U 08025A   24106.77965753  .00000032  00000-0  16239-3 0  9998
2 32953  82.4990 128.3083 0018287 238.8410 121.0877 12.43138725721375
Epoch (UTC): 15 April 2024 18:42:42
Eccentricity: 0.0018287
inclination: 82.4990°
perigee height: 1479 km
apogee height: 1508 km
right ascension of ascending node: 128.3083°
argument of perigee: 238.8410°
revolutions per day: 12.43138725
mean anomaly at epoch: 121.0877°
orbit number at epoch: 72137

The dashed part of the orbit path shows where the satellite is in the earth's shadow,  

DLR